Powrót do katalogu

STARLINK-32077

AktywnyŁącznośćVLEO
NORAD 60344·PAYLOAD·🇺🇸 United States

Wystrzelony Aug 2, 2024 z Cape Canaveral Space Force Station

Loading…

Następne Przeloty (najbliższe 24 godziny)

TLE

ŚwieżeSource: CelesTrak SupGP

Epoka: Sep 14, 2026, 13:51 UTC

1 60344C 24136R   26257.57756944  .00025041  00000+0  73997-3 0  2578
2 60344  53.1570 277.4377 0001397  68.9234  27.7721 15.34372002    13

Śledź STARLINK-32077 w czasie rzeczywistym z AllMySat

Download on the App Store